This is the latest recevied weather packets stored in our database for station/object LU8FJH-13. If no packets are shown the sender has not sent any weather packets the latest 10 day(s).
| Time | Temp. | Humidity | Pressure | Rain* | Wind** | Luminosity | Snow |
|---|---|---|---|---|---|---|---|
| 1778092443 | 32.22° C | 50% | 1002.2 hPa | 0 mm | - | - | - |
| 1778091902 | 32.22° C | 50% | 1002.4 hPa | 0 mm | - | - | - |
| 1778091362 | 32.78° C | 49% | 1002.5 hPa | 0 mm | - | - | - |
| 1778090822 | 32.78° C | 49% | 1002.3 hPa | 0 mm | - | - | - |
| 1778090282 | 32.22° C | 49% | 1002.4 hPa | 0 mm | - | - | - |
| 1778089742 | 32.22° C | 49% | 1002.7 hPa | 0 mm | - | - | - |
| 1778089202 | 32.78° C | 49% | 1002.7 hPa | 0 mm | - | - | - |
| 1778088662 | 33.33° C | 50% | 1002.7 hPa | 0 mm | - | - | - |
| 1778088122 | 32.78° C | 50% | 1003 hPa | 0 mm | - | - | - |
| 1778087582 | 32.78° C | 51% | 1003.1 hPa | 0 mm | - | - | - |
| 1778087042 | 32.22° C | 51% | 1003.3 hPa | 0 mm | - | - | - |
| 1778086502 | 32.22° C | 52% | 1003.8 hPa | 0 mm | - | - | - |
| 1778085962 | 32.22° C | 52% | 1003.9 hPa | 0 mm | - | - | - |
| 1778085422 | 32.22° C | 53% | 1004.3 hPa | 0 mm | - | - | - |
| 1778084882 | 31.67° C | 55% | 1004.3 hPa | 0 mm | - | - | - |
| 1778084342 | 31.67° C | 55% | 1004.6 hPa | 0 mm | - | - | - |
| 1778083802 | 31.67° C | 58% | 1004.9 hPa | 0 mm | - | - | - |
| 1778083263 | 30.56° C | 60% | 1005.3 hPa | 0 mm | - | - | - |
| 1778082722 | 30° C | 61% | 1005.4 hPa | 0 mm | - | - | - |
| 1778082182 | 30° C | 61% | 1005.9 hPa | 0 mm | - | - | - |
| 1778081642 | 30.56° C | 60% | 1006.2 hPa | 0 mm | - | - | - |
| 1778081102 | 30.56° C | 61% | 1006.1 hPa | 0 mm | - | - | - |
| 1778080562 | 30° C | 65% | 1006.3 hPa | 0 mm | - | - | - |
| 1778080022 | 29.44° C | 64% | 1006.5 hPa | 0 mm | - | - | - |
| 1778079482 | 29.44° C | 64% | 1006.7 hPa | 0 mm | - | - | - |
* Rain latest hour (hover to see other rain measurements)
** Current wind speed in m/s (hover to see current wind gust speed)